• In Netherlands
  • List of Countries
  • For 7 days
  • Water Temperature
  • Satellite Maps
  • Weather Map
  • Weather Widgets
  • user-avatar
    Login

    Hourly Weather Tarin Kowt

    Today, 22 February, Wednesday

    Time Temperature Precipitation Wind Pressure Humidity
    00:00 +2°C° 0 mm 0 mps 615 mmHg 57%
    01:00 +2°C° 0 mm 0 mps 615 mmHg 57%
    02:00 +2°C° 0 mm 0 mps 614 mmHg 56%
    03:00 +2°C° 0 mm 1 mps 614 mmHg 54%
    04:00 +2°C° 0 mm 1 mps 614 mmHg 53%
    05:00 +2°C° 0 mm 1 mps 614 mmHg 51%
    06:00 +2°C° 0 mm 1 mps 614 mmHg 49%
    07:00 +3°C° 0 mm 1 mps 615 mmHg 47%
    08:00 +4°C° 0 mm 1 mps 615 mmHg 40%
    09:00 +5°C° 0 mm 1 mps 616 mmHg 34%
    10:00 +7°C° 0 mm 1 mps 616 mmHg 28%
    11:00 +8°C° 0 mm 1 mps 616 mmHg 26%
    12:00 +8°C° 0 mm 1 mps 616 mmHg 25%
    13:00 +9°C° 0 mm 1 mps 616 mmHg 23%
    14:00 +8°C° 0 mm 2 mps 616 mmHg 24%
    15:00 +9°C° 0 mm 2 mps 616 mmHg 24%
    16:00 +9°C° 0 mm 2 mps 616 mmHg 24%
    17:00 +8°C° 0 mm 2 mps 616 mmHg 29%
    18:00 +8°C° 0 mm 1 mps 616 mmHg 34%
    19:00 +7°C° 0 mm 1 mps 616 mmHg 39%
    20:00 +7°C° 0 mm 1 mps 616 mmHg 41%
    21:00 +6°C° 0 mm 1 mps 616 mmHg 43%
    22:00 +4°C° 0 mm 0 mps 616 mmHg 45%
    23:00 +4°C° 0 mm 0 mps 616 mmHg 45%

    Tomorrow, 23 February, Thursday

    Time Temperature Precipitation Wind Pressure Humidity
    00:00 +4°C° 0 mm 0 mps 616 mmHg 45%
    01:00 +4°C° 0 mm 1 mps 616 mmHg 45%
    02:00 +4°C° 0 mm 1 mps 615 mmHg 44%
    03:00 +4°C° 0 mm 1 mps 615 mmHg 43%
    04:00 +3°C° 0 mm 1 mps 615 mmHg 42%
    05:00 +3°C° 0 mm 1 mps 616 mmHg 41%
    06:00 +4°C° 0 mm 1 mps 616 mmHg 40%
    07:00 +4°C° 0 mm 1 mps 617 mmHg 39%
    08:00 +5°C° 0 mm 1 mps 618 mmHg 33%
    09:00 +7°C° 0 mm 1 mps 618 mmHg 27%
    10:00 +8°C° 0 mm 1 mps 619 mmHg 20%
    11:00 +9°C° 0 mm 1 mps 619 mmHg 19%
    12:00 +10°C° 0 mm 1 mps 619 mmHg 18%
    13:00 +11°C° 0 mm 1 mps 619 mmHg 17%
    14:00 +11°C° 0 mm 1 mps 619 mmHg 17%
    15:00 +11°C° 0 mm 1 mps 619 mmHg 17%
    16:00 +11°C° 0 mm 1 mps 619 mmHg 17%
    17:00 +10°C° 0 mm 1 mps 619 mmHg 22%
    18:00 +9°C° 0 mm 1 mps 619 mmHg 28%
    19:00 +8°C° 0 mm 1 mps 619 mmHg 34%
    20:00 +8°C° 0 mm 1 mps 619 mmHg 34%
    21:00 +7°C° 0 mm 1 mps 619 mmHg 34%
    22:00 +7°C° 0 mm 1 mps 619 mmHg 34%
    23:00 +7°C° 0 mm 1 mps 619 mmHg 32%

    Day after tomorrow, 24 February, Friday

    Time Temperature Precipitation Wind Pressure Humidity
    00:00 +7°C° 0 mm 1 mps 619 mmHg 31%
    01:00 +6°C° 0 mm 2 mps 619 mmHg 30%
    02:00 +6°C° 0 mm 2 mps 618 mmHg 30%
    03:00 +6°C° 0 mm 2 mps 618 mmHg 30%
    04:00 +6°C° 0 mm 2 mps 618 mmHg 29%
    05:00 +6°C° 0 mm 2 mps 618 mmHg 30%
    06:00 +6°C° 0 mm 2 mps 618 mmHg 30%
    07:00 +6°C° 0 mm 2 mps 618 mmHg 30%
    08:00 +7°C° 0 mm 2 mps 619 mmHg 25%
    09:00 +9°C° 0 mm 2 mps 619 mmHg 21%
    10:00 +12°C° 0 mm 2 mps 620 mmHg 17%
    11:00 +12°C° 0 mm 2 mps 620 mmHg 16%
    12:00 +11°C° 0 mm 3 mps 620 mmHg 16%
    13:00 +12°C° 0 mm 3 mps 619 mmHg 16%
    14:00 +12°C° 0 mm 3 mps 619 mmHg 19%
    15:00 +11°C° 0 mm 3 mps 619 mmHg 22%
    16:00 +12°C° 0 mm 2 mps 618 mmHg 25%
    17:00 +10°C° 0 mm 2 mps 619 mmHg 30%
    18:00 +10°C° 0 mm 2 mps 619 mmHg 35%
    19:00 +9°C° 0 mm 2 mps 619 mmHg 40%
    20:00 +8°C° 0.2 mm 2 mps 619 mmHg 44%
    21:00 +8°C° 0.2 mm 2 mps 619 mmHg 48%
    22:00 +8°C° 0.2 mm 2 mps 619 mmHg 53%
    23:00 +7°C° 0.2 mm 2 mps 618 mmHg 57%

    25 February, Saturday

    Time Temperature Precipitation Wind Pressure Humidity
    00:00 +8°C° 0.2 mm 1 mps 618 mmHg 62%
    01:00 +7°C° 0.2 mm 1 mps 618 mmHg 66%
    02:00 +7°C° 0 mm 1 mps 618 mmHg 68%
    03:00 +7°C° 0 mm 1 mps 617 mmHg 71%
    04:00 +6°C° 0 mm 1 mps 617 mmHg 73%
    05:00 +6°C° 0 mm 1 mps 617 mmHg 73%
    06:00 +6°C° 0 mm 1 mps 618 mmHg 73%
    07:00 +7°C° 0 mm 1 mps 618 mmHg 73%
    08:00 +8°C° 0 mm 1 mps 619 mmHg 66%
    09:00 +8°C° 0 mm 2 mps 619 mmHg 59%
    10:00 +9°C° 0 mm 2 mps 620 mmHg 52%
    11:00 +10°C° 0 mm 3 mps 620 mmHg 49%
    12:00 +11°C° 0 mm 4 mps 619 mmHg 45%
    13:00 +11°C° 0 mm 4 mps 619 mmHg 41%
    14:00 +10°C° 0 mm 5 mps 619 mmHg 40%
    15:00 +10°C° 0 mm 5 mps 619 mmHg 39%
    16:00 +10°C° 0 mm 5 mps 618 mmHg 38%
    17:00 +10°C° 0 mm 4 mps 618 mmHg 41%
    18:00 +9°C° 0 mm 3 mps 618 mmHg 44%
    19:00 +8°C° 0 mm 2 mps 618 mmHg 47%
    20:00 +8°C° 0 mm 2 mps 618 mmHg 48%
    21:00 +7°C° 0 mm 2 mps 618 mmHg 50%
    22:00 +7°C° 0 mm 1 mps 619 mmHg 51%
    23:00 +7°C° 0 mm 1 mps 618 mmHg 53%

    26 February, Sunday

    Time Temperature Precipitation Wind Pressure Humidity
    00:00 +6°C° 0 mm 1 mps 618 mmHg 54%
    01:00 +6°C° 0 mm 1 mps 618 mmHg 55%
    02:00 +5°C° 0 mm 1 mps 617 mmHg 55%
    03:00 +5°C° 0 mm 1 mps 617 mmHg 56%
    04:00 +5°C° 0 mm 1 mps 617 mmHg 56%
    05:00 +5°C° 0 mm 1 mps 617 mmHg 56%
    06:00 +5°C° 0 mm 1 mps 618 mmHg 56%
    07:00 +5°C° 0 mm 1 mps 618 mmHg 55%
    08:00 +6°C° 0 mm 1 mps 618 mmHg 50%
    09:00 +7°C° 0 mm 1 mps 619 mmHg 44%
    10:00 +8°C° 0 mm 1 mps 619 mmHg 38%
    11:00 +9°C° 0 mm 1 mps 619 mmHg 36%
    12:00 +9°C° 0 mm 1 mps 619 mmHg 34%
    13:00 +10°C° 0 mm 1 mps 618 mmHg 31%
    14:00 +10°C° 0 mm 1 mps 618 mmHg 31%
    15:00 +9°C° 0 mm 2 mps 618 mmHg 30%
    16:00 +10°C° 0 mm 2 mps 618 mmHg 29%
    17:00 +9°C° 0 mm 2 mps 618 mmHg 33%
    18:00 +9°C° 0 mm 1 mps 618 mmHg 36%
    19:00 +9°C° 0 mm 1 mps 618 mmHg 40%
    20:00 +8°C° 0 mm 1 mps 618 mmHg 42%
    21:00 +8°C° 0 mm 1 mps 618 mmHg 45%
    22:00 +6°C° 0 mm 0 mps 618 mmHg 48%
    23:00 +6°C° 0 mm 0 mps 618 mmHg 49%

    27 February, Monday

    Time Temperature Precipitation Wind Pressure Humidity
    00:00 +5°C° 0 mm 0 mps 618 mmHg 50%
    01:00 +5°C° 0 mm 0 mps 617 mmHg 50%
    02:00 +5°C° 0 mm 1 mps 617 mmHg 50%
    03:00 +5°C° 0 mm 1 mps 617 mmHg 50%
    04:00 +5°C° 0 mm 1 mps 617 mmHg 50%
    05:00 +5°C° 0 mm 1 mps 617 mmHg 50%
    06:00 +5°C° 0 mm 1 mps 618 mmHg 49%
    07:00 +5°C° 0 mm 1 mps 618 mmHg 49%
    08:00 +7°C° 0 mm 1 mps 619 mmHg 43%
    09:00 +8°C° 0 mm 1 mps 619 mmHg 37%
    10:00 +9°C° 0 mm 1 mps 620 mmHg 31%
    11:00 +10°C° 0 mm 1 mps 620 mmHg 28%
    12:00 +11°C° 0 mm 1 mps 619 mmHg 26%
    13:00 +11°C° 0 mm 1 mps 619 mmHg 24%
    14:00 +11°C° 0 mm 1 mps 619 mmHg 24%
    15:00 +12°C° 0 mm 1 mps 619 mmHg 23%
    16:00 +12°C° 0 mm 1 mps 619 mmHg 23%
    17:00 +11°C° 0 mm 1 mps 619 mmHg 27%
    18:00 +10°C° 0 mm 1 mps 619 mmHg 31%
    19:00 +10°C° 0 mm 1 mps 619 mmHg 36%
    20:00 +9°C° 0 mm 1 mps 619 mmHg 38%
    21:00 +9°C° 0 mm 1 mps 619 mmHg 40%
    22:00 +8°C° 0 mm 1 mps 619 mmHg 42%
    23:00 +7°C° 0 mm 1 mps 618 mmHg 42%
    Show more